Погода в Талдоме

Россия / Московская область     56°43′51″N   37°31′39″E
темп.,
°C
ветер,
м/с
пор.,
м/с
влажн.,
%
обл.,
%
осадки,
мм/ч
давл.,
гПа
погр.,
м
27 января, чт
чт2700:00−16з1110097 0.1 10179
03:00−17ю11100100 0.1 10179
06:00−12ююз2398100 0.1 101653
09:00−13ю2798100 0.1 1015118
12:00−9ююз3891100 0.0 1014344
15:00−8ю41090100 0.0 1013470
18:00−10ю5129152 0.0 1012387
21:00−11ю5149165 0.0 1010398
28 января, пт
пт2800:00−11ю51490100 0.0 1008415
03:00−11ю51493100 0.2 1007449
06:00−11ююв51492100 0.1 1005413
09:00−10ююв51492100 0.2 1004438
12:00−8ююв51492100 0.5 1003503
15:00−6ююв51293100 1.1 1002540
18:00−7ююв51194100 0.5 1002518
21:00−7ююв41094100 1.0 1002416
29 января, сб
сб2900:00−7ююв3995100 0.4 1002349
03:00−8юв3795100 0.6 1002262
06:00−8юв2697100 0.1 1002166
09:00−9юв2597100 0.1 1002126
12:00−5ююв1393100 0.1 1002210
15:00−3юв0095100 0.7 1002187
18:00−6зсз1198100 0.3 100211
21:00−7з269782 0.5 1002170
30 января, вс
вс3000:00−12зюз249988 0.1 100051
03:00−14ююз2610097 0.1 99894
06:00−12ююв41195100 0.0 993245
09:00−9ююв51588100 0.0 989518
12:00−6ююв71591100 0.3 985824
15:00−4ююв61391100 0.9 983895
18:00−4ююв61389100 0.8 982654
21:00−4ююв5129297 0.9 982464
31 января, пн
пн3100:00−3юв41092100 0.1 983625
03:00−4вюв4109299 0.3 982393
06:00−4в3109696 0.4 983381
09:00−3в389799 1.1 983330
12:00−2ю3595100 0.3 985428
15:00−2ююз2390100 0.5 986438
18:00−6ю1198100 0.0 98816
21:00−6юз1397100 0.4 98996